Regional Weather Roundup
Issued by NWS

Home | Current Version | Previous Version | Graphics & Text | Print | Product List | Glossary On
Versions: 1 2 3 4 5 6 7 8 9 10 11 12 13 14 15 16 17 18 19 20 21 22 23 24 25 26 27 28 29 30 31 32 33 34 35 36 37 38 39 40 41 42 43 44 45 46 47 48 49 50
000
ASUS43 KOAX 310710
RWRNE

WEATHER ROUNDUP FOR NEBRASKA
NATIONAL WEATHER SERVICE OMAHA NE
200 AM CDT FRI OCT 31 2014

NOTES: SATELLITE DATA IS BEING USED TO AUGMENT CLOUD COVER ABOVE
       12000 FEET.
       "FAIR" INDICATES FEW OR NO CLOUDS BELOW 12,000 FEET WITH NO
       SIGNIFICANT WEATHER AND/OR OBSTRUCTIONS TO VISIBILITY.

  * THESE STATIONS DO NOT REPORT WEATHER SUCH AS RAIN...SNOW OR FOG.

NEZ001>004-019>022-054>056-310800-
NEBRASKA PANHANDLE

CITY           SKY/WX    TMP DP  RH WIND       PRES   REMARKS
SCOTTSBLUFF    CLEAR     33  30  88 E8        30.44R WCI  26
ALLIANCE       CLEAR     26  23  88 E5        30.45S WCI  20
CHADRON        CLEAR     27  24  89 CALM      30.47R FOG
KIMBALL        CLEAR     31  28  89 SE7       30.42S WCI  25
SIDNEY         CLEAR     29  26  89 SE7       30.45R WCI  22
$$

NEZ057>060-069>072-079>082-310800-
SOUTHWEST NEBRASKA

CITY           SKY/WX    TMP DP  RH WIND       PRES   REMARKS
NORTH PLATTE   CLEAR     29  26  89 CALM      30.47R
IMPERIAL       CLEAR     33  27  78 CALM      30.47R
LEXINGTON      CLEAR     32  30  92 N7        30.47R WCI  26
MCCOOK         CLEAR     35  29  78 N5        30.47R WCI  31
OGALLALA       CLEAR     31  29  90 NE5       30.47R WCI  27
$$

NEZ005>010-023>029-035>040-094-310800-
NORTH CENTRAL NEBRASKA

CITY           SKY/WX    TMP DP  RH WIND       PRES   REMARKS
VALENTINE      CLOUDY    32  27  81 NE12      30.52R WCI  23
AINSWORTH      CLOUDY    32  28  84 NE13      30.50S WCI  22
BROKEN BOW     CLOUDY    34  30  85 N16G23    30.47R WCI  24
O`NEILL        CLOUDY    33  26  77 N16G22    30.52R WCI  22
ORD            CLOUDY    34  27  75 N13       30.48R WCI  25
THEDFORD       CLOUDY    33  32  96 NE9       30.50R WCI  25
$$

NEZ041-046>049-061>064-073>077-083>087-310800-
SOUTH CENTRAL NEBRASKA

CITY           SKY/WX    TMP DP  RH WIND       PRES   REMARKS
GRAND ISLAND   CLOUDY    37  31  78 N10       30.46R WCI  30
AURORA         CLOUDY    37  29  74 N21G26    30.44S WCI  26
HASTINGS       CLOUDY    36  31  82 N12       30.44R WCI  28
HEBRON         CLOUDY    40  32  71 N10       30.42R WCI  34
HOLDREGE       CLEAR     33  30  88 CALM      30.45R
KEARNEY *      CLOUDY    36  30  80 NW12      30.47R WCI  27
YORK           CLOUDY    37  30  75 N21G31    30.44R WCI  27
$$

NEZ011>018-030>034-042>045-310800-
NORTHEAST NEBRASKA

CITY           SKY/WX    TMP DP  RH WIND       PRES   REMARKS
NORFOLK        CLOUDY    35  24  64 N21G33    30.49R WCI  24
ALBION         MOCLDY    36  26  67 N18G26    30.48R WCI  25
BLAIR          CLOUDY    37  26  65 N18G31    30.42R WCI  26
FREMONT        CLOUDY    37  27  66 N8G18     30.46R WCI  31
TEKAMAH        CLOUDY    36  24  62 N24G32    30.47R WCI  24
WAYNE          CLEAR     31  21  64 N14G21    30.51R WCI  21
$$

NEZ050>053-065>068-078-088>093-310800-
SOUTHEAST NEBRASKA

CITY           SKY/WX    TMP DP  RH WIND       PRES   REMARKS
LINCOLN        CLOUDY    40  28  62 N22G31    30.44R WCI  30
OMAHA EPPLEY   CLOUDY    38  27  64 N18G30    30.44R WCI  28
BEATRICE       PTCLDY    39  30  70 N18G29    30.40R WCI  30
FALLS CITY     CLOUDY    43  34  70 N22G30    30.34R
NEBRASKA CITY  CLOUDY    40  27  59 N17G24    30.39R WCI  31
PLATTSMOUTH    CLOUDY    39  27  63 N16G28    30.40R WCI  30
$$

NEZ044-045-051>053-067-310800-
OMAHA AREA

CITY           SKY/WX    TMP DP  RH WIND       PRES   REMARKS
OMAHA EPPLEY   CLOUDY    38  27  64 N18G30    30.44R WCI  28
BLAIR          CLOUDY    37  26  65 N18G31    30.42R WCI  26
FREMONT        CLOUDY    37  27  66 N8G18     30.46R WCI  31
MILLARD        CLOUDY    38  26  63 NW17G24   30.44R WCI  28
OFFUTT AFB     CLOUDY    40  29  64 N12G23    30.42R WCI  33
PLATTSMOUTH    CLOUDY    39  27  63 N16G28    30.40R WCI  30
WAHOO          CLOUDY    38  26  62 N17G26    30.44R WCI  29
$$



USA.gov is the U.S. government's official web portal to all federal, state and local government web resources and services.